Project,Study,Ord_Occ,Event_Num,Date_Time_UTC,Date_Time_PST,Lat_Dec,Lon_Dec,Sta_ID,Line,Sta,Depth,Pressure,Temp0,Temp1,Salt0,CorrSalt0,Salt1,CorrSalt1,O2ml/L,AveCorrO2ml/L,StaCorrO2ml/L,FluorV,AveEstChl,StaEstChl,ISUSV,AveEstNO3,StaEstNO3,SigThetaTS0,SigThetaTS1,BAT,XMiss,SPAR,PAR,BTL_Depth,BTL_Temp,BTL_Salt,BTL_O2ml/L,BTL_Chl,BTL_Pha,BTL_NO3
CalCOFI,0711NH,020,,07-Nov-2007 17:52:24,07-Nov-2007 09:52:24,31.42990,-121.99928,090.0 090.0,090.0,090.0,512.000,516.211,5.6648,5.6671,34.2635,34.2636,34.2644,34.2651,0.38250,0.38,0.41,0.0242,,,1.5802,39.80,41.300,27.0177,27.0181,0.5264,87.6686,-9.990e-29,9.9990e+03,,,,,,,
CalCOFI,0711NH,020,,07-Nov-2007 17:52:25,07-Nov-2007 09:52:25,31.42990,-121.99926,090.0 090.0,090.0,090.0,511.000,515.202,5.6685,5.6698,34.2641,34.2642,34.2646,34.2653,0.38138,0.38,0.41,0.0242,,,1.5381,38.54,40.007,27.0177,27.0180,0.5264,87.6683,-9.990e-29,9.9990e+03,511,5.67 ,34.265,  .36,,,41.2
CalCOFI,0711NH,020,,07-Nov-2007 17:52:27,07-Nov-2007 09:52:27,31.42990,-121.99926,090.0 090.0,090.0,090.0,510.000,514.192,5.6692,5.6719,34.2642,34.2643,34.2650,34.2657,0.38143,0.38,0.41,0.0238,,,1.5517,38.95,40.425,27.0178,27.0180,0.5265,87.6671,5.8364e+02,9.9990e+03,,,,,,,
CalCOFI,0711NH,020,,07-Nov-2007 17:52:34,07-Nov-2007 09:52:34,31.42992,-121.99926,090.0 090.0,090.0,090.0,509.000,513.183,5.6712,5.6716,34.2644,34.2645,34.2650,34.2657,0.38163,0.38,0.41,0.0238,,,1.5758,39.67,41.165,27.0177,27.0181,0.5264,87.6674,5.8367e+02,9.9990e+03,,,,,,,
CalCOFI,0711NH,020,,07-Nov-2007 17:52:39,07-Nov-2007 09:52:39,31.42992,-121.99926,090.0 090.0,090.0,090.0,508.000,512.173,5.6733,5.6719,34.2645,34.2646,34.2649,34.2656,0.38148,0.38,0.41,0.0240,,,1.5426,38.67,40.146,27.0174,27.0179,0.5264,87.6676,5.8754e+02,9.9990e+03,,,,,,,
CalCOFI,0711NH,020,,07-Nov-2007 17:52:40,07-Nov-2007 09:52:40,31.42993,-121.99926,090.0 090.0,090.0,090.0,507.000,511.164,5.6744,5.6754,34.2635,34.2636,34.2641,34.2648,0.38343,0.38,0.41,0.0241,,,1.5224,38.07,39.525,27.0165,27.0169,0.5263,87.6696,5.8750e+02,9.9990e+03,,,,,,,
CalCOFI,0711NH,020,,07-Nov-2007 17:52:41,07-Nov-2007 09:52:41,31.42994,-121.99926,090.0 090.0,090.0,090.0,506.000,510.154,5.6749,5.6763,34.2621,34.2622,34.2623,34.2630,0.38503,0.38,0.41,0.0237,,,1.5790,39.77,41.263,27.0154,27.0153,0.5261,87.6760,5.8748e+02,9.9990e+03,,,,,,,
CalCOFI,0711NH,020,,07-Nov-2007 17:52:42,07-Nov-2007 09:52:42,-9.990e-29,-121.99925,090.0 090.0,090.0,090.0,505.000,509.145,5.6749,5.6765,34.2618,34.2619,34.2624,34.2631,0.38533,0.38,0.41,0.0241,,,1.5647,39.34,40.824,27.0151,27.0153,0.5262,87.6737,5.8748e+02,9.9990e+03,,,,,,,
CalCOFI,0711NH,020,,07-Nov-2007 17:52:43,07-Nov-2007 09:52:43,-9.990e-29,-121.99924,090.0 090.0,090.0,090.0,504.000,508.136,5.6751,5.6767,34.2616,34.2617,34.2620,34.2627,0.38689,0.38,0.42,0.0239,,,1.5587,39.16,40.640,27.0149,27.0150,0.5262,87.6726,5.8748e+02,9.9990e+03,,,,,,,
CalCOFI,0711NH,020,,07-Nov-2007 17:52:44,07-Nov-2007 09:52:44,-9.990e-29,-121.99924,090.0 090.0,090.0,090.0,503.000,507.126,5.6762,5.6777,34.2608,34.2609,34.2613,34.2620,0.38800,0.38,0.42,0.0237,,,1.5526,38.97,40.452,27.0141,27.0143,0.5262,87.6731,5.8748e+02,9.9990e+03,,,,,,,
CalCOFI,0711NH,020,,07-Nov-2007 17:52:46,07-Nov-2007 09:52:46,-9.990e-29,-121.99926,090.0 090.0,090.0,090.0,502.000,506.117,5.6761,5.6778,34.2597,34.2598,34.2603,34.2610,0.39012,0.39,0.42,0.0237,,,1.5653,39.35,40.842,27.0133,27.0135,0.5263,87.6716,5.8748e+02,9.9990e+03,,,,,,,
CalCOFI,0711NH,020,,07-Nov-2007 17:52:48,07-Nov-2007 09:52:48,-9.990e-29,-121.99924,090.0 090.0,090.0,090.0,501.000,505.107,5.6751,5.6765,34.2594,34.2595,34.2597,34.2604,0.39459,0.39,0.42,0.0239,,,1.5799,39.79,41.290,27.0131,27.0132,0.5262,87.6720,5.8748e+02,9.9990e+03,,,,,,,
CalCOFI,0711NH,020,,07-Nov-2007 17:52:49,07-Nov-2007 09:52:49,31.42996,-121.99924,090.0 090.0,090.0,090.0,500.000,504.098,5.6645,5.6652,34.2565,34.2566,34.2563,34.2570,0.40957,0.41,0.44,0.0241,,,1.5459,38.77,40.247,27.0121,27.0119,0.5259,87.6801,5.8748e+02,9.9990e+03,,,,,,,
CalCOFI,0711NH,020,,07-Nov-2007 17:52:50,07-Nov-2007 09:52:50,31.42996,-121.99924,090.0 090.0,090.0,090.0,499.000,503.088,5.6414,5.6413,34.2480,34.2481,34.2476,34.2483,0.42659,0.42,0.45,0.0239,,,1.5506,38.91,40.391,27.0082,27.0079,0.5261,87.6757,5.8748e+02,9.9990e+03,,,,,,,
CalCOFI,0711NH,020,,07-Nov-2007 17:52:51,07-Nov-2007 09:52:51,31.42996,-121.99924,090.0 090.0,090.0,090.0,498.000,502.079,5.5937,5.5903,34.2312,34.2313,34.2299,34.2306,0.43894,0.43,0.47,0.0238,,,1.5550,39.05,40.526,27.0006,27.0000,0.5258,87.6819,5.8748e+02,9.9990e+03,,,,,,,
CalCOFI,0711NH,020,,07-Nov-2007 17:52:52,07-Nov-2007 09:52:52,31.42996,-121.99924,090.0 090.0,090.0,090.0,497.000,501.070,5.5666,5.5676,34.2227,34.2228,34.2232,34.2239,0.44898,0.44,0.48,0.0242,,,1.5591,39.17,40.652,26.9972,26.9974,0.5253,87.6924,5.8748e+02,9.9990e+03,,,,,,,
CalCOFI,0711NH,020,,07-Nov-2007 17:52:53,07-Nov-2007 09:52:53,31.42996,-121.99924,090.0 090.0,090.0,090.0,496.000,500.060,5.5725,5.5752,34.2227,34.2228,34.2234,34.2241,0.45483,0.45,0.48,0.0241,,,1.5645,39.33,40.818,26.9965,26.9966,0.5257,87.6843,5.8748e+02,9.9990e+03,,,,,,,
CalCOFI,0711NH,020,,07-Nov-2007 17:52:54,07-Nov-2007 09:52:54,31.42996,-121.99924,090.0 090.0,090.0,090.0,495.000,499.051,5.5823,5.5835,34.2230,34.2231,34.2238,34.2245,0.45980,0.46,0.49,0.0238,,,1.5756,39.66,41.158,26.9955,26.9960,0.5256,87.6858,5.8748e+02,9.9990e+03,,,,,,,
CalCOFI,0711NH,020,,07-Nov-2007 17:52:55,07-Nov-2007 09:52:55,31.42996,-121.99924,090.0 090.0,090.0,090.0,494.000,498.041,5.5871,5.5883,34.2232,34.2233,34.2238,34.2245,0.46570,0.46,0.49,0.0237,,,1.5551,39.05,40.529,26.9951,26.9954,0.5258,87.6811,5.8748e+02,9.9990e+03,,,,,,,
CalCOFI,0711NH,020,,07-Nov-2007 17:52:56,07-Nov-2007 09:52:56,31.42996,-121.99924,090.0 090.0,090.0,090.0,493.000,497.032,5.5928,5.5940,34.2225,34.2226,34.2233,34.2240,0.46973,0.46,0.50,0.0240,,,1.5246,38.13,39.593,26.9938,26.9943,0.5261,87.6748,5.8748e+02,9.9990e+03,,,,,,,
CalCOFI,0711NH,020,,07-Nov-2007 17:52:57,07-Nov-2007 09:52:57,31.42996,-121.99923,090.0 090.0,090.0,090.0,492.000,496.023,5.5956,5.5974,34.2228,34.2229,34.2236,34.2243,0.47210,0.47,0.50,0.0241,,,1.5626,39.27,40.759,26.9937,26.9941,0.5256,87.6855,5.8748e+02,9.9990e+03,,,,,,,
CalCOFI,0711NH,020,,07-Nov-2007 17:52:58,07-Nov-2007 09:52:58,31.42996,-121.99922,090.0 090.0,090.0,090.0,491.000,495.013,5.6002,5.6022,34.2232,34.2233,34.2238,34.2245,0.47448,0.47,0.50,0.0234,,,1.5236,38.10,39.562,26.9935,26.9937,0.5256,87.6869,5.8748e+02,9.9990e+03,,,,,,,
CalCOFI,0711NH,020,,07-Nov-2007 17:52:59,07-Nov-2007 09:52:59,31.42996,-9.990e-29,090.0 090.0,090.0,090.0,490.000,494.004,5.6105,5.6118,34.2238,34.2239,34.2241,34.2248,0.47724,0.47,0.50,0.0239,,,1.5157,37.87,39.320,26.9926,26.9928,0.5256,87.6866,5.8748e+02,9.9990e+03,,,,,,,
CalCOFI,0711NH,020,,07-Nov-2007 17:53:00,07-Nov-2007 09:53:00,31.42996,-9.990e-29,090.0 090.0,090.0,090.0,489.000,492.995,5.6216,5.6231,34.2228,34.2229,34.2232,34.2239,0.48217,0.48,0.51,0.0237,,,1.5149,37.84,39.295,26.9905,26.9907,0.5257,87.6842,5.8748e+02,9.9990e+03,,,,,,,
CalCOFI,0711NH,020,,07-Nov-2007 17:53:00,07-Nov-2007 09:53:00,31.42996,-9.990e-29,090.0 090.0,090.0,090.0,488.000,491.985,5.6237,5.6252,34.2214,34.2215,34.2218,34.2225,0.48907,0.48,0.52,0.0239,,,1.5166,37.89,39.347,26.9891,26.9893,0.5258,87.6808,5.8748e+02,9.9990e+03,,,,,,,
CalCOFI,0711NH,020,,07-Nov-2007 17:53:02,07-Nov-2007 09:53:02,31.42998,-9.990e-29,090.0 090.0,090.0,090.0,487.000,490.976,5.6191,5.6195,34.2146,34.2147,34.2149,34.2156,0.49536,0.49,0.52,0.0241,,,1.5249,38.14,39.602,26.9843,26.9845,0.5255,87.6876,5.8748e+02,9.9990e+03,,,,,,,
CalCOFI,0711NH,020,,07-Nov-2007 17:53:03,07-Nov-2007 09:53:03,31.42998,-9.990e-29,090.0 090.0,090.0,090.0,486.000,489.966,5.6380,5.6391,34.2137,34.2138,34.2144,34.2151,0.50388,0.50,0.53,0.0240,,,1.5269,38.20,39.664,26.9813,26.9817,0.5256,87.6861,5.8748e+02,9.9990e+03,,,,,,,
CalCOFI,0711NH,020,,07-Nov-2007 17:53:04,07-Nov-2007 09:53:04,31.42998,-9.990e-29,090.0 090.0,090.0,090.0,485.000,488.957,5.6269,5.6280,34.2094,34.2095,34.2089,34.2096,0.51392,0.51,0.54,0.0237,,,1.5402,38.60,40.072,26.9792,26.9787,0.5258,87.6827,5.8748e+02,9.9990e+03,,,,,,,
CalCOFI,0711NH,020,,07-Nov-2007 17:53:05,07-Nov-2007 09:53:05,31.42998,-9.990e-29,090.0 090.0,090.0,090.0,484.000,487.948,5.6224,5.6241,34.2053,34.2054,34.2058,34.2065,0.52354,0.52,0.55,0.0238,,,1.5342,38.42,39.888,26.9765,26.9767,0.5273,87.6494,5.8748e+02,9.9990e+03,,,,,,,
CalCOFI,0711NH,020,,07-Nov-2007 17:53:06,07-Nov-2007 09:53:06,31.42998,-121.99922,090.0 090.0,090.0,090.0,483.000,486.938,5.6168,5.6180,34.2021,34.2022,34.2024,34.2031,0.52853,0.52,0.55,0.0234,,,1.5200,37.99,39.452,26.9746,26.9747,0.5256,87.6856,5.8748e+02,9.9990e+03,,,,,,,
CalCOFI,0711NH,020,,07-Nov-2007 17:53:07,07-Nov-2007 09:53:07,31.42998,-121.99922,090.0 090.0,090.0,090.0,482.000,485.929,5.6242,5.6252,34.2022,34.2023,34.2025,34.2032,0.53369,0.53,0.56,0.0242,,,1.5273,38.21,39.676,26.9738,26.9740,0.5253,87.6930,5.8748e+02,9.9990e+03,,,,,,,
CalCOFI,0711NH,020,,07-Nov-2007 17:53:08,07-Nov-2007 09:53:08,31.42998,-121.99922,090.0 090.0,090.0,090.0,481.000,484.920,5.6263,5.6282,34.2021,34.2022,34.2024,34.2031,0.54002,0.53,0.57,0.0240,,,1.6135,40.80,42.322,26.9735,26.9735,0.5256,87.6868,5.8748e+02,9.9990e+03,,,,,,,
CalCOFI,0711NH,020,,07-Nov-2007 17:53:09,07-Nov-2007 09:53:09,31.42998,-121.99922,090.0 090.0,090.0,090.0,480.000,483.910,5.6190,5.6211,34.1992,34.1993,34.1997,34.2004,0.54498,0.54,0.57,0.0239,,,1.5619,39.25,40.738,26.9721,26.9722,0.5258,87.6819,5.8748e+02,9.9990e+03,,,,,,,
CalCOFI,0711NH,020,,07-Nov-2007 17:53:10,07-Nov-2007 09:53:10,31.42998,-121.99922,090.0 090.0,090.0,090.0,479.000,482.901,5.6100,5.6120,34.1958,34.1959,34.1964,34.1971,0.55074,0.54,0.58,0.0240,,,1.5477,38.83,40.302,26.9705,26.9707,0.5255,87.6892,5.8748e+02,9.9990e+03,,,,,,,
CalCOFI,0711NH,020,,07-Nov-2007 17:53:11,07-Nov-2007 09:53:11,31.42998,-121.99922,090.0 090.0,090.0,090.0,478.000,481.892,5.6121,5.6138,34.1955,34.1956,34.1959,34.1966,0.55771,0.55,0.58,0.0240,,,1.5630,39.29,40.772,26.9700,26.9701,0.5256,87.6874,5.8748e+02,9.9990e+03,,,,,,,
CalCOFI,0711NH,020,,07-Nov-2007 17:53:12,07-Nov-2007 09:53:12,31.42998,-121.99922,090.0 090.0,090.0,090.0,477.000,480.883,5.6200,5.6207,34.1930,34.1931,34.1935,34.1942,0.56379,0.56,0.59,0.0232,,,1.5693,39.47,40.965,26.9670,26.9673,0.5262,87.6730,5.8748e+02,9.9990e+03,,,,,,,
CalCOFI,0711NH,020,,07-Nov-2007 17:53:13,07-Nov-2007 09:53:13,31.42999,-121.99921,090.0 090.0,090.0,090.0,476.000,479.873,5.6238,5.6254,34.1921,34.1922,34.1925,34.1932,0.56665,0.56,0.59,0.0241,,,1.5387,38.56,40.026,26.9658,26.9659,0.5254,87.6906,5.8748e+02,9.9990e+03,,,,,,,
CalCOFI,0711NH,020,,07-Nov-2007 17:53:14,07-Nov-2007 09:53:14,31.43000,-121.99920,090.0 090.0,090.0,090.0,475.000,478.864,5.6258,5.6272,34.1919,34.1920,34.1923,34.1930,0.56968,0.56,0.60,0.0235,,,1.5069,37.60,39.050,26.9654,26.9655,0.5260,87.6776,5.8748e+02,9.9990e+03,,,,,,,
CalCOFI,0711NH,020,,07-Nov-2007 17:53:15,07-Nov-2007 09:53:15,31.43000,-121.99920,090.0 090.0,090.0,090.0,474.000,477.855,5.6342,5.6385,34.1915,34.1916,34.1923,34.1930,0.57233,0.57,0.60,0.0244,,,1.5512,38.93,40.409,26.9641,26.9642,0.5258,87.6819,5.8748e+02,9.9990e+03,,,,,,,
CalCOFI,0711NH,020,,07-Nov-2007 17:53:15,07-Nov-2007 09:53:15,31.43000,-121.99920,090.0 090.0,090.0,090.0,473.000,476.845,5.6397,5.6420,34.1919,34.1920,34.1921,34.1928,0.57380,0.57,0.60,0.0240,,,1.5391,38.57,40.038,26.9637,26.9636,0.5256,87.6861,5.8756e+02,9.9990e+03,,,,,,,
CalCOFI,0711NH,020,,07-Nov-2007 17:53:17,07-Nov-2007 09:53:17,31.43000,-121.99920,090.0 090.0,090.0,090.0,472.000,475.836,5.6463,5.6479,34.1926,34.1927,34.1931,34.1938,0.57375,0.57,0.60,0.0239,,,1.5179,37.93,39.387,26.9635,26.9636,0.5255,87.6884,5.8754e+02,9.9990e+03,,,,,,,
CalCOFI,0711NH,020,,07-Nov-2007 17:53:18,07-Nov-2007 09:53:18,31.43000,-121.99920,090.0 090.0,090.0,090.0,471.000,474.827,5.6465,5.6470,34.1925,34.1926,34.1928,34.1935,0.57597,0.57,0.60,0.0236,,,1.5333,38.39,39.860,26.9633,26.9635,0.5255,87.6887,5.8735e+02,9.9990e+03,,,,,,,
CalCOFI,0711NH,020,,07-Nov-2007 17:53:19,07-Nov-2007 09:53:19,31.43000,-121.99920,090.0 090.0,090.0,090.0,470.000,473.817,5.6470,5.6490,34.1925,34.1926,34.1929,34.1936,0.57613,0.57,0.60,0.0234,,,1.5568,39.10,40.581,26.9633,26.9634,0.5254,87.6916,5.9060e+02,9.9990e+03,,,,,,,
CalCOFI,0711NH,020,,07-Nov-2007 17:53:20,07-Nov-2007 09:53:20,31.43001,-121.99920,090.0 090.0,090.0,090.0,469.000,472.808,5.6481,5.6504,34.1925,34.1926,34.1928,34.1935,0.57718,0.57,0.60,0.0241,,,1.5363,38.48,39.952,26.9631,26.9631,0.5253,87.6938,5.9148e+02,9.9990e+03,,,,,,,
CalCOFI,0711NH,020,,07-Nov-2007 17:53:21,07-Nov-2007 09:53:21,31.43002,-121.99920,090.0 090.0,090.0,090.0,468.000,471.799,5.6486,5.6507,34.1923,34.1924,34.1927,34.1934,0.57654,0.57,0.60,0.0240,,,1.5055,37.56,39.007,26.9629,26.9629,0.5255,87.6886,5.9149e+02,9.9990e+03,,,,,,,
CalCOFI,0711NH,020,,07-Nov-2007 17:53:22,07-Nov-2007 09:53:22,31.43002,-121.99920,090.0 090.0,090.0,090.0,467.000,470.790,5.6485,5.6502,34.1921,34.1922,34.1923,34.1930,0.57724,0.57,0.60,0.0236,,,1.5297,38.29,39.750,26.9627,26.9626,0.5254,87.6915,5.9149e+02,9.9990e+03,,,,,,,
CalCOFI,0711NH,020,,07-Nov-2007 17:53:23,07-Nov-2007 09:53:23,31.43002,-121.99920,090.0 090.0,090.0,090.0,466.000,469.780,5.6505,5.6523,34.1923,34.1924,34.1927,34.1934,0.57798,0.57,0.60,0.0237,,,1.5687,39.46,40.947,26.9626,26.9627,0.5254,87.6902,5.9148e+02,9.9990e+03,,,,,,,
CalCOFI,0711NH,020,,07-Nov-2007 17:53:24,07-Nov-2007 09:53:24,31.43002,-121.99920,090.0 090.0,090.0,090.0,465.000,468.771,5.6573,5.6590,34.1926,34.1927,34.1932,34.1939,0.57921,0.57,0.60,0.0235,,,1.5235,38.10,39.559,26.9621,26.9623,0.5256,87.6856,-9.990e-29,9.9990e+03,,,,,,,
CalCOFI,0711NH,020,,07-Nov-2007 17:53:25,07-Nov-2007 09:53:25,31.43002,-121.99920,090.0 090.0,090.0,090.0,464.000,467.762,5.6582,5.6598,34.1917,34.1918,34.1921,34.1928,0.58343,0.58,0.61,0.0237,,,1.5312,38.33,39.796,26.9612,26.9613,0.5253,87.6942,-9.990e-29,9.9990e+03,,,,,,,
CalCOFI,0711NH,020,,07-Nov-2007 17:53:26,07-Nov-2007 09:53:26,31.43002,-121.99920,090.0 090.0,090.0,090.0,463.000,466.753,5.6575,5.6593,34.1904,34.1905,34.1907,34.1914,0.58965,0.58,0.61,0.0237,,,1.5438,38.71,40.182,26.9603,26.9603,0.5254,87.6910,-9.990e-29,9.9990e+03,,,,,,,
CalCOFI,0711NH,020,,07-Nov-2007 17:53:27,07-Nov-2007 09:53:27,31.43002,-121.99918,090.0 090.0,090.0,090.0,462.000,465.743,5.6505,5.6527,34.1875,34.1876,34.1877,34.1884,0.59452,0.59,0.62,0.0240,,,1.5352,38.45,39.918,26.9588,26.9587,0.5257,87.6838,-9.990e-29,9.9990e+03,,,,,,,
CalCOFI,0711NH,020,,07-Nov-2007 17:53:28,07-Nov-2007 09:53:28,31.43002,-121.99918,090.0 090.0,090.0,090.0,461.000,464.734,5.6496,5.6509,34.1852,34.1853,34.1856,34.1863,0.59919,0.59,0.62,0.0240,,,1.5562,39.08,40.563,26.9571,26.9572,0.5253,87.6921,-9.990e-29,9.9990e+03,,,,,,,
CalCOFI,0711NH,020,,07-Nov-2007 17:53:29,07-Nov-2007 09:53:29,31.43002,-121.99918,090.0 090.0,090.0,090.0,460.000,463.725,5.6525,5.6541,34.1843,34.1844,34.1846,34.1853,0.60197,0.60,0.63,0.0237,,,1.6098,40.69,42.208,26.9560,26.9560,0.5254,87.6915,-9.990e-29,9.9990e+03,,,,,,,
CalCOFI,0711NH,020,,07-Nov-2007 17:53:30,07-Nov-2007 09:53:30,31.43002,-121.99918,090.0 090.0,090.0,090.0,459.000,462.716,5.6591,5.6608,34.1849,34.1850,34.1852,34.1859,0.60720,0.60,0.63,0.0240,,,1.5927,40.18,41.683,26.9556,26.9557,0.5251,87.6965,-9.990e-29,9.9990e+03,,,,,,,
CalCOFI,0711NH,020,,07-Nov-2007 17:53:31,07-Nov-2007 09:53:31,31.43002,-121.99918,090.0 090.0,090.0,090.0,458.000,461.707,5.6629,5.6644,34.1843,34.1844,34.1846,34.1853,0.61023,0.60,0.63,0.0234,,,1.5803,39.80,41.303,26.9547,26.9548,0.5256,87.6864,-9.990e-29,9.9990e+03,,,,,,,
CalCOFI,0711NH,020,,07-Nov-2007 17:53:31,07-Nov-2007 09:53:31,31.43002,-121.99918,090.0 090.0,090.0,090.0,457.000,460.697,5.6641,5.6656,34.1836,34.1837,34.1838,34.1845,0.61467,0.61,0.64,0.0239,,,1.6037,40.51,42.021,26.9540,26.9540,0.5255,87.6888,-9.990e-29,9.9990e+03,,,,,,,
CalCOFI,0711NH,020,,07-Nov-2007 17:53:32,07-Nov-2007 09:53:32,31.43002,-121.99918,090.0 090.0,090.0,090.0,456.000,459.688,5.6652,5.6669,34.1820,34.1821,34.1823,34.1830,0.61932,0.61,0.64,0.0235,,,1.5590,39.17,40.649,26.9526,26.9527,0.5254,87.6915,-9.990e-29,9.9990e+03,,,,,,,
CalCOFI,0711NH,020,,07-Nov-2007 17:53:33,07-Nov-2007 09:53:33,31.43002,-121.99918,090.0 090.0,090.0,090.0,455.000,458.679,5.6693,5.6718,34.1799,34.1800,34.1803,34.1810,0.62460,0.62,0.65,0.0239,,,1.5113,37.73,39.185,26.9504,26.9505,0.5251,87.6979,-9.990e-29,9.9990e+03,,,,,,,
CalCOFI,0711NH,020,,07-Nov-2007 17:53:35,07-Nov-2007 09:53:35,31.43002,-121.99918,090.0 090.0,090.0,090.0,454.000,457.670,5.6806,5.6886,34.1807,34.1808,34.1804,34.1811,0.63080,0.62,0.66,0.0236,,,1.5223,38.06,39.522,26.9497,26.9485,0.5254,87.6899,-9.990e-29,9.9990e+03,,,,,,,
CalCOFI,0711NH,020,,07-Nov-2007 17:53:37,07-Nov-2007 09:53:37,31.43004,-121.99918,090.0 090.0,090.0,090.0,453.000,456.661,5.7102,5.6927,34.1817,34.1818,34.1818,34.1825,0.64120,0.63,0.67,0.0238,,,1.5340,38.41,39.882,26.9469,26.9490,0.5256,87.6866,-9.990e-29,9.9990e+03,,,,,,,
CalCOFI,0711NH,020,,07-Nov-2007 17:53:38,07-Nov-2007 09:53:38,31.43004,-121.99918,090.0 090.0,090.0,090.0,452.000,455.651,5.7474,5.7430,34.1783,34.1784,34.1792,34.1799,0.65068,0.64,0.67,0.0237,,,1.5281,38.24,39.700,26.9396,26.9409,0.5254,87.6898,-9.990e-29,9.9990e+03,,,,,,,
CalCOFI,0711NH,020,,07-Nov-2007 17:53:38,07-Nov-2007 09:53:38,31.43004,-121.99918,090.0 090.0,090.0,090.0,451.000,454.642,5.7402,5.7437,34.1756,34.1757,34.1758,34.1765,0.65930,0.65,0.68,0.0238,,,1.5234,38.10,39.556,26.9383,26.9381,0.5259,87.6803,-9.990e-29,9.9990e+03,,,,,,,
CalCOFI,0711NH,020,,07-Nov-2007 17:53:39,07-Nov-2007 09:53:39,31.43004,-121.99916,090.0 090.0,090.0,090.0,450.000,453.633,5.7302,5.7324,34.1723,34.1724,34.1722,34.1729,0.66679,0.66,0.69,0.0239,,,1.5338,38.41,39.875,26.9369,26.9366,0.5259,87.6790,-9.990e-29,9.9990e+03,,,,,,,
CalCOFI,0711NH,020,,07-Nov-2007 17:53:40,07-Nov-2007 09:53:40,31.43004,-121.99916,090.0 090.0,090.0,090.0,449.000,452.624,5.7297,5.7314,34.1699,34.1700,34.1701,34.1708,0.67126,0.66,0.70,0.0239,,,1.5460,38.78,40.250,26.9351,26.9350,0.5252,87.6947,-9.990e-29,9.9990e+03,,,,,,,
CalCOFI,0711NH,020,,07-Nov-2007 17:53:41,07-Nov-2007 09:53:41,31.43004,-121.99916,090.0 090.0,090.0,090.0,448.000,451.615,5.7385,5.7392,34.1696,34.1697,34.1697,34.1704,0.67674,0.67,0.70,0.0233,,,1.5588,39.16,40.643,26.9338,26.9337,0.5253,87.6937,-9.990e-29,9.9990e+03,,,,,,,
CalCOFI,0711NH,020,,07-Nov-2007 17:53:42,07-Nov-2007 09:53:42,31.43004,-121.99916,090.0 090.0,090.0,090.0,447.000,450.605,5.7465,5.7487,34.1691,34.1692,34.1690,34.1697,0.68053,0.67,0.70,0.0239,,,1.5697,39.49,40.977,26.9323,26.9320,0.5257,87.6833,-9.990e-29,9.9990e+03,,,,,,,
CalCOFI,0711NH,020,,07-Nov-2007 17:53:43,07-Nov-2007 09:53:43,31.43004,-121.99916,090.0 090.0,090.0,090.0,446.000,449.596,5.7575,5.7613,34.1703,34.1704,34.1709,34.1716,0.68408,0.68,0.71,0.0240,,,1.5682,39.44,40.931,26.9320,26.9320,0.5254,87.6907,-9.990e-29,9.9990e+03,,,,,,,
CalCOFI,0711NH,020,,07-Nov-2007 17:53:45,07-Nov-2007 09:53:45,31.43004,-121.99916,090.0 090.0,090.0,090.0,445.000,448.587,5.7566,5.7614,34.1701,34.1702,34.1697,34.1704,0.69629,0.69,0.72,0.0238,,,1.5360,38.47,39.943,26.9319,26.9310,0.5254,87.6901,-9.990e-29,9.9990e+03,,,,,,,
CalCOFI,0711NH,020,,07-Nov-2007 17:53:46,07-Nov-2007 09:53:46,31.43004,-121.99916,090.0 090.0,090.0,090.0,444.000,447.578,5.7486,5.7576,34.1652,34.1653,34.1676,34.1683,0.71246,0.70,0.74,0.0230,,,1.5115,37.74,39.191,26.9290,26.9298,0.5253,87.6925,-9.990e-29,9.9990e+03,,,,,,,
CalCOFI,0711NH,020,,07-Nov-2007 17:53:47,07-Nov-2007 09:53:47,31.43004,-121.99916,090.0 090.0,090.0,090.0,443.000,446.569,5.7234,5.7299,34.1569,34.1570,34.1580,34.1587,0.72338,0.71,0.75,0.0234,,,1.5057,37.57,39.013,26.9255,26.9256,0.5251,87.6985,-9.990e-29,9.9990e+03,,,,,,,
CalCOFI,0711NH,020,,07-Nov-2007 17:53:47,07-Nov-2007 09:53:47,31.43004,-121.99916,090.0 090.0,090.0,090.0,442.000,445.560,5.7165,5.7187,34.1537,34.1538,34.1540,34.1547,0.73174,0.72,0.75,0.0238,,,1.5032,37.49,38.936,26.9238,26.9238,0.5250,87.6997,-9.990e-29,9.9990e+03,,,,,,,
CalCOFI,0711NH,020,,07-Nov-2007 17:53:48,07-Nov-2007 09:53:48,31.43004,-121.99916,090.0 090.0,090.0,090.0,441.000,444.551,5.7128,5.7147,34.1514,34.1515,34.1518,34.1525,0.73915,0.73,0.76,0.0235,,,1.5524,38.97,40.446,26.9224,26.9225,0.5252,87.6958,-9.990e-29,9.9990e+03,,,,,,,
CalCOFI,0711NH,020,,07-Nov-2007 17:53:50,07-Nov-2007 09:53:50,31.43004,-121.99916,090.0 090.0,090.0,090.0,440.000,443.541,5.7187,5.7205,34.1532,34.1533,34.1534,34.1541,0.73871,0.73,0.76,0.0236,,,1.5395,38.58,40.050,26.9231,26.9230,0.5250,87.6998,-9.990e-29,9.9990e+03,,,,,,,
CalCOFI,0711NH,020,,07-Nov-2007 17:53:55,07-Nov-2007 09:53:55,31.43006,-121.99916,090.0 090.0,090.0,090.0,439.000,442.532,5.7329,5.7328,34.1610,34.1611,34.1596,34.1603,0.72934,0.72,0.75,0.0236,,,1.5062,37.58,39.028,26.9275,26.9264,0.5252,87.6954,-9.990e-29,9.9990e+03,,,,,,,
CalCOFI,0711NH,020,,07-Nov-2007 17:53:56,07-Nov-2007 09:53:56,31.43006,-121.99914,090.0 090.0,090.0,090.0,438.000,441.523,5.7259,5.7231,34.1554,34.1555,34.1532,34.1539,0.74485,0.74,0.77,0.0236,,,1.5232,38.09,39.550,26.9240,26.9226,0.5252,87.6952,5.9155e+02,9.9990e+03,,,,,,,
CalCOFI,0711NH,020,,07-Nov-2007 17:54:00,07-Nov-2007 09:54:00,31.43008,-121.99914,090.0 090.0,090.0,090.0,437.000,440.514,5.7254,5.7259,34.1480,34.1481,34.1478,34.1485,0.76936,0.76,0.79,0.0237,,,1.5291,38.27,39.731,26.9182,26.9179,0.5249,87.7011,5.9426e+02,9.9990e+03,437,5.73 ,34.146,  .76,,,40.0
CalCOFI,0711NH,020,,07-Nov-2007 17:55:07,07-Nov-2007 09:55:07,31.43013,-121.99903,090.0 090.0,090.0,090.0,436.000,439.505,5.7294,5.7314,34.1441,34.1442,34.1442,34.1449,0.79723,0.79,0.82,0.0236,,,1.5383,38.54,40.014,26.9146,26.9144,0.5248,87.7039,5.9582e+02,9.9990e+03,,,,,,,
CalCOFI,0711NH,020,,07-Nov-2007 17:55:31,07-Nov-2007 09:55:31,31.43016,-121.99898,090.0 090.0,090.0,090.0,435.000,438.496,5.7315,5.7332,34.1424,34.1425,34.1421,34.1428,0.80494,0.79,0.83,0.0235,,,1.5180,37.93,39.390,26.9130,26.9125,-9.990e-29,-9.990e-29,-9.990e-29,9.9990e+03,,,,,,,
CalCOFI,0711NH,020,,07-Nov-2007 17:55:35,07-Nov-2007 09:55:35,31.43016,-121.99898,090.0 090.0,090.0,090.0,434.000,437.487,5.7356,5.7371,34.1426,34.1427,34.1421,34.1428,0.80750,0.80,0.83,0.0238,,,1.5143,37.82,39.277,26.9126,26.9120,-9.990e-29,-9.990e-29,-9.990e-29,9.9990e+03,,,,,,,
CalCOFI,0711NH,020,,07-Nov-2007 17:55:37,07-Nov-2007 09:55:37,31.43016,-121.99897,090.0 090.0,090.0,090.0,433.000,436.478,5.7349,5.7366,34.1417,34.1418,34.1412,34.1419,0.81223,0.80,0.83,0.0232,,,1.5318,38.35,39.814,26.9120,26.9114,0.5246,87.7091,6.0328e+02,9.9990e+03,,,,,,,
CalCOFI,0711NH,020,,07-Nov-2007 17:55:40,07-Nov-2007 09:55:40,31.43016,-121.99896,090.0 090.0,090.0,090.0,432.000,435.469,5.7302,5.7322,34.1392,34.1393,34.1387,34.1394,0.82385,0.81,0.85,0.0235,,,1.5160,37.87,39.329,26.9106,26.9099,0.5246,87.7099,6.0321e+02,9.9990e+03,,,,,,,
CalCOFI,0711NH,020,,07-Nov-2007 17:55:42,07-Nov-2007 09:55:42,31.43016,-121.99896,090.0 090.0,090.0,090.0,431.000,434.460,5.7235,5.7286,34.1355,34.1356,34.1358,34.1365,0.84611,0.84,0.87,0.0234,,,1.4953,37.25,38.694,26.9084,26.9080,0.5246,87.7083,6.0334e+02,9.9990e+03,,,,,,,
CalCOFI,0711NH,020,,07-Nov-2007 17:55:43,07-Nov-2007 09:55:43,31.43016,-121.99896,090.0 090.0,090.0,090.0,430.000,433.450,5.7312,5.7331,34.1300,34.1301,34.1295,34.1302,0.85535,0.84,0.88,0.0237,,,1.5335,38.40,39.866,26.9031,26.9025,0.5248,87.7038,6.0304e+02,9.9990e+03,,,,,,,
CalCOFI,0711NH,020,,07-Nov-2007 17:55:44,07-Nov-2007 09:55:44,31.43016,-121.99896,090.0 090.0,090.0,090.0,429.000,432.441,5.7353,5.7373,34.1294,34.1295,34.1289,34.1296,0.86229,0.85,0.88,0.0236,,,1.5740,39.62,41.109,26.9021,26.9015,0.5248,87.7050,6.0309e+02,9.9990e+03,,,,,,,
CalCOFI,0711NH,020,,07-Nov-2007 17:55:44,07-Nov-2007 09:55:44,31.43016,-121.99896,090.0 090.0,090.0,090.0,428.000,431.432,5.7416,5.7434,34.1287,34.1288,34.1281,34.1288,0.86607,0.86,0.89,0.0235,,,1.5480,38.84,40.311,26.9008,26.9001,0.5247,87.7066,6.0334e+02,9.9990e+03,,,,,,,